Tracking 19832 objects as of 25-Aug-2019
HD Live streaming from Space Station
objects crossing your sky now

GLOBALSTAR M058

Track GLOBALSTAR M058 now!
10-day predictions
GLOBALSTAR M058 is classified as:


NORAD ID: 25907
Int'l Code: 1999-049A
Perigee: 1,717.3 km
Apogee: 1,720.6 km
Inclination: 52.0 °
Period: 120.7 minutes
Semi major axis: 8089 km
RCS: 2.4031 m2 (large)
Launch date: September 22, 1999
Source: Globalstar (GLOB)
Launch site: TYURATAM MISSILE AND SPACE COMPLEX (TTMTR)
aabbcc
Your satellite tracking list
Your tracking list is empty




NASA's NSSDC Master Catalog

Two Line Element Set (TLE):
1 25907U 99049A   19236.48156578 -.00000082  00000-0  37544-4 0  9997
2 25907  51.9965  19.5600 0002058 109.3806 250.7252 11.93125788899254
Source of the keplerian elements: AFSPC